Regional Weather Roundup
Issued by NWS Charleston, SC

Current Version | Previous Version | Graphics & Text | Print | Product List | Glossary Off
Versions: 1 2 3 4 5 6 7 8 9 10 11 12 13 14 15 16 17 18 19 20 21 22 23 24 25 26 27 28 29 30 31 32 33 34 35 36 37 38 39 40 41 42 43 44 45 46 47 48 49 50

000
ASUS42 KCHS 272228
RWRCHS

REGIONAL WEATHER ROUNDUP
NATIONAL WEATHER SERVICE CHARLESTON SC
600 PM EDT FRI MAY 27 2016

NOTE: "FAIR" INDICATES FEW OR NO CLOUDS BELOW 12,000 FEET WITH NO
SIGNIFICANT WEATHER AND/OR OBSTRUCTIONS TO VISIBILITY.

NOT ALL STATIONS ARE QUALITY CONTROLLED. USE DATA WITH CAUTION...
ESPECIALLY DEWPOINT OBSERVATIONS.

SCZ027-030-031-034>040-042>050-272300-
...SOUTHEAST SOUTH CAROLINA...

CITY           SKY/WX    TMP DP  RH WIND       PRES   REMARKS
N CHARLESTON   MOSUNNY   81  60  48 SE10      30.08S
WATERFRONT PRK   N/A     81  65  58 E13       30.07F
MOUNT PLEASANT FAIR      81  64  57 E6        30.08F
JOHNS ISLAND   FAIR      79  66  65 E10       30.08F
PINOPOLIS        N/A     88  59  37 SE5       29.99F
MONCKS CORNER  FAIR      79  54  41 SE8       30.07F
SUMMERVILLE    FAIR      84  59  42 E5        30.08S
BEAUFORT MCAS  SUNNY     81  63  54 E13       30.08S
BEAUFORT ARPT  FAIR      81  61  50 E8        30.06F
HILTON HEAD IS SUNNY     81  66  61 NE7       30.09F
WALTERBORO     PTCLDY    84  59  42 SE10      30.07F
ALLENDALE      FAIR      84  59  42 SE12      30.04F

...SOUTHERN MIDLANDS AND PEE DEE...

CITY           SKY/WX    TMP DP  RH WIND       PRES   REMARKS
GEORGETOWN     FAIR      79  59  50 E10       30.11S
KINGSTREE      FAIR      82  46  28 E12       30.08S
ORANGEBURG     MOSUNNY   86  52  30 E8        30.06F
BARNWELL       FAIR      88  61  40 SE8       30.05F
AIKEN          FAIR      82  57  42 E9        30.08F
MANNING        FAIR      82  50  32 E6        30.07F
COLUMBIA       MOSUNNY   87  60  40 SE13      30.04F
SUMTER         MOSUNNY   87  58  37 SE12      30.04F
FLORENCE       SUNNY     86  60  41 SE12      30.08S
MYRTLE BEACH   SUNNY     81  59  47 SE12      30.13F
N MYRTLE BEACH SUNNY     78  62  57 SE10      30.11F

$$

GAZ063-065-086>088-099>101-113>116-118-119-134>141-150-272300-
...SOUTHEAST GEORGIA...

CITY           SKY/WX    TMP DP  RH WIND       PRES   REMARKS
SAVANNAH ARPT  MOSUNNY   82  62  50 E13       30.06F
HUNTER AAF     MOSUNNY   79  65  62 E9        30.04F
FORT STEWART   MOSUNNY   82  62  50 E14       30.02F
STATESBORO     MOSUNNY   85  62  45 SE7       30.04F
SYLVANIA       CLEAR     85  59  41 SE7       30.05F
CLAXTON        FAIR      83  61  48 E9        30.03F

...CSRA...CENTRAL AND FAR SOUTHEAST GEORGIA...

CITY           SKY/WX    TMP DP  RH WIND       PRES   REMARKS
THOMSON        MOSUNNY   85  66  53 E6        30.08S
AUGUSTA-BUSH   SUNNY     86  59  39 SE8       30.02F
AUGUSTA-DANIEL MOSUNNY   88  59  37 E12       30.04F
SWAINSBORO     FAIR      86  54  32 E7        30.03F
VIDALIA        MOSUNNY   84  59  42 E12G17    30.03S
EASTMAN        FAIR      88  55  32 SE10      30.03F
HAZLEHURST     FAIR      86  57  37 SE8       30.01S
ALMA           SUNNY     84  62  47 E8G17     30.01F
WAYCROSS       SUNNY     83  63  50 E13       30.01F
JESUP          FAIR      77  63  61 SE13      30.03F
BAXLEY         FAIR      84  61  45 E10G16    30.01S
BRUNSWICK      MOSUNNY   84  68  58 E13       30.05F
SAINT SIMONS   SUNNY     80  67  64 NE12      30.05F

$$

SCZ027-028-034-036>038-045-046-048>050-GAZ119-141-272300-
...LAKE AND SUPPLEMENTAL COASTAL OBSERVATIONS...

STATION/POSITION TIME  TEMP    WIND        PRES    WAVE   SWELL
                       AIR SEA DIR/SP/G            HT/PER HT/PER/DIR
                 (UTC) (F)     (DEG/KT/KT) (MB)    (FT/S) (FT/S/D)
WINYAH BAY       2145   77      90/ 10     1019.0S
LAKE MURRAY      2200   83     100/  8/ 11 1016.9F
ACE BASIN NERRS  2100   82     110/  3     1019.0S
FORT PULASKI     2200                      1018.4F
SAPELO ISLAND    2200   80      60/ 10     1018.0S

$$

ANZ835-935-AMZ111-154-330-350-352-354-370-450-454-472-272300-
...C-MAN AND BUOY OBSERVATIONS...

STATION/POSITION TIME  TEMP    WIND        PRES    WAVE   SWELL
                       AIR SEA DIR/SP/G            HT/PER HT/PER/DIR
                 (UTC) (F)     (DEG/KT/KT) (MB)    (FT/S) (FT/S/D)
BUOY 41004       2150   76 77   40/ 16/ 17 1018.1F   3/ 7   2/ 7
BUOY 41008       2150   77 77   60/ 14/ 16 1017.5F   3/ 6   2/120/ 8
FOLLY BEACH CMAN 2200   77      70/ 12/ 13 1019.1F
CAPERS NEARSHORE 2208   76 77   80/ 14/ 19 1018.6F
FRIPP NEARSHORE  2208   77 77   80/ 14/ 17 1017.8F


STATION/POSITION TIME  TEMP    WIND        PRES    WAVE   SWELL
                       AIR SEA DIR/SP/G            HT/PER HT/PER/DIR
                 (UTC) (F)     (DEG/KT/KT) (MB)    (FT/S) (FT/S/D)
5E ST. MARYS GA  2201      78                N/A     3/ 6
FRYING PAN BUOY  2200   77 76   60/ 10/ 14 1019.1S
BUOY 41025       2150   77 78  130/ 12/ 12 1020.4F   2/ 4   2/110/ 7
CAPE LOOKOUT NC  2200   75     110/  7/  8 1019.9F
BUOY 41002       2150   77 78   80/ 19/ 23 1017.1F   5/ 5   2/110/ 8
BUOY 41010       2120   78 78   40/ 16/ 17 1015.4F
ST AUGUSTINE FL  2200   78 80   80/ 11/ 12 1017.4F


$$




USA.gov is the U.S. government's official web portal to all federal, state and local government web resources and services.